4XCWZ LLHA-LLHZ

Flight info

Callsign 4XCWZ
Flight time 0h 53m
Altitude 2000
Route GALIM DAROM HOTRM BOREN FRDIS HADRA SHARO DEROR BAZRA
Aircraft C172/L-V/N

Departure

Time 2026-04-27 15:40
Airport Uri Michaeli Haifa International Airport (LLHA)

Arrival

Time 2026-04-27 16:33
Airport Herzliya Airport (LLHZ)
Time Latitude Longitude Altitude Speed Heading
2026-04-27 15:31 32.81234 35.04187 21 ft 0 kts 250°
2026-04-27 15:36 32.81222 35.04180 20 ft 8 kts 162°
2026-04-27 15:36 32.81158 35.04212 21 ft 10 kts 127°
2026-04-27 15:36 32.81155 35.04235 21 ft 0 kts 65°
2026-04-27 15:37 32.81171 35.04310 22 ft 21 kts 97°
2026-04-27 15:37 32.81114 35.04340 21 ft 20 kts 159°
2026-04-27 15:38 32.80902 35.04426 23 ft 39 kts 162°
2026-04-27 15:38 32.80711 35.04508 22 ft 6 kts 58°
2026-04-27 15:38 32.80714 35.04513 21 ft 2 kts 13°
2026-04-27 15:38 32.80769 35.04481 21 ft 28 kts 339°
2026-04-27 15:39 32.81098 35.04334 35 ft 67 kts 337°
2026-04-27 15:39 32.81438 35.04143 302 ft 52 kts 334°
2026-04-27 15:39 32.81808 35.03897 346 ft 68 kts 332°
2026-04-27 15:39 32.82128 35.03596 600 ft 64 kts 314°
2026-04-27 15:40 32.82406 35.03144 780 ft 68 kts 309°
2026-04-27 15:40 32.82652 35.02652 957 ft 74 kts 304°
2026-04-27 15:40 32.82910 35.02023 921 ft 97 kts 298°
2026-04-27 15:40 32.83163 35.01234 982 ft 99 kts 294°
2026-04-27 15:41 32.83371 35.00453 1073 ft 98 kts 295°
2026-04-27 15:41 32.83588 34.99659 1095 ft 104 kts 288°
2026-04-27 15:41 32.83675 34.98807 1217 ft 100 kts 274°
2026-04-27 15:41 32.83624 34.98022 1428 ft 96 kts 263°
2026-04-27 15:42 32.83438 34.97249 1562 ft 100 kts 256°
2026-04-27 15:42 32.83136 34.96479 1695 ft 107 kts 249°
2026-04-27 15:42 32.82766 34.95731 1911 ft 103 kts 232°
2026-04-27 15:42 32.82047 34.95424 1977 ft 117 kts 195°
2026-04-27 15:43 32.81209 34.95250 1966 ft 125 kts 189°
2026-04-27 15:43 32.80318 34.95159 1989 ft 127 kts 185°
2026-04-27 15:43 32.79456 34.95113 2094 ft 123 kts 184°
2026-04-27 15:43 32.78594 34.95116 2076 ft 128 kts 180°
2026-04-27 15:44 32.77737 34.95139 2097 ft 127 kts 178°
2026-04-27 15:44 32.76856 34.95266 2110 ft 128 kts 178°
2026-04-27 15:44 32.75968 34.95300 2108 ft 129 kts 184°
2026-04-27 15:44 32.75058 34.95287 2109 ft 132 kts 182°
2026-04-27 15:45 32.74287 34.95794 2100 ft 130 kts 126°
2026-04-27 15:45 32.73508 34.96342 2092 ft 133 kts 161°
2026-04-27 15:45 32.72641 34.96714 2093 ft 131 kts 161°
2026-04-27 15:45 32.71773 34.97043 2071 ft 131 kts 162°
2026-04-27 15:46 32.70902 34.97292 2062 ft 129 kts 186°
2026-04-27 15:46 32.70083 34.96892 2060 ft 126 kts 209°
2026-04-27 15:46 32.69252 34.96540 2061 ft 130 kts 201°
2026-04-27 15:46 32.68361 34.96284 2064 ft 132 kts 196°
2026-04-27 15:47 32.67456 34.96162 2065 ft 130 kts 187°
2026-04-27 15:47 32.66544 34.96146 2066 ft 132 kts 179°
2026-04-27 15:47 32.65624 34.96176 2063 ft 132 kts 182°
2026-04-27 15:47 32.64706 34.96178 2068 ft 132 kts 181°
2026-04-27 15:48 32.63800 34.96185 2058 ft 128 kts 185°
2026-04-27 15:48 32.62923 34.96113 2055 ft 126 kts 189°
2026-04-27 15:48 32.62046 34.96015 2055 ft 126 kts 189°
2026-04-27 15:49 32.60300 34.95799 2055 ft 124 kts 197°
2026-04-27 15:49 32.59482 34.95484 2048 ft 123 kts 204°
2026-04-27 15:49 32.58684 34.95162 2050 ft 121 kts 206°
2026-04-27 15:49 32.57904 34.94783 2054 ft 123 kts 206°
2026-04-27 15:50 32.57119 34.94412 2053 ft 120 kts 206°
2026-04-27 15:50 32.56345 34.94060 2056 ft 119 kts 206°
2026-04-27 15:50 32.55571 34.93706 2060 ft 120 kts 205°
2026-04-27 15:50 32.54789 34.93342 2058 ft 121 kts 205°
2026-04-27 15:51 32.53986 34.93035 2060 ft 123 kts 193°
2026-04-27 15:51 32.53124 34.92981 2058 ft 124 kts 185°
2026-04-27 15:51 32.52259 34.92979 2058 ft 125 kts 180°
2026-04-27 15:51 32.51393 34.93012 2063 ft 124 kts 182°
2026-04-27 15:52 32.50815 34.93019 2060 ft 122 kts 186°
2026-04-27 15:52 32.49993 34.92878 2053 ft 118 kts 194°
2026-04-27 15:52 32.49185 34.92688 2054 ft 119 kts 196°
2026-04-27 15:52 32.48361 34.92491 2057 ft 122 kts 195°
2026-04-27 15:53 32.47534 34.92268 2051 ft 121 kts 199°
2026-04-27 15:53 32.46752 34.91953 2057 ft 117 kts 205°
2026-04-27 15:53 32.46006 34.91628 2056 ft 115 kts 204°
2026-04-27 15:53 32.45251 34.91289 2060 ft 117 kts 205°
2026-04-27 15:54 32.44448 34.91017 2062 ft 119 kts 195°
2026-04-27 15:54 32.43621 34.90871 2061 ft 121 kts 191°
2026-04-27 15:54 32.42890 34.90788 2063 ft 121 kts 189°
2026-04-27 15:54 32.42214 34.90700 2065 ft 121 kts 189°
2026-04-27 15:55 32.41373 34.90598 2064 ft 121 kts 188°
2026-04-27 15:55 32.40531 34.90490 2068 ft 120 kts 189°
2026-04-27 15:55 32.39687 34.90383 2070 ft 124 kts 185°
2026-04-27 15:55 32.38841 34.90540 2063 ft 124 kts 174°
2026-04-27 15:56 32.37995 34.90688 2067 ft 122 kts 173°
2026-04-27 15:56 32.37158 34.90816 2068 ft 121 kts 174°
2026-04-27 15:56 32.36317 34.90914 2061 ft 121 kts 180°
2026-04-27 15:56 32.35472 34.90949 2060 ft 122 kts 182°
2026-04-27 15:57 32.34624 34.90939 2067 ft 123 kts 185°
2026-04-27 15:57 32.33762 34.90876 2067 ft 124 kts 189°
2026-04-27 15:57 32.32902 34.90758 2065 ft 124 kts 190°
2026-04-27 15:57 32.32054 34.90654 2064 ft 122 kts 189°
2026-04-27 15:58 32.31211 34.90547 2071 ft 124 kts 190°
2026-04-27 15:58 32.30348 34.90425 2072 ft 125 kts 189°
2026-04-27 15:58 32.29490 34.90295 2070 ft 122 kts 190°
2026-04-27 15:58 32.28648 34.90159 2064 ft 122 kts 191°
2026-04-27 15:59 32.27827 34.90000 2069 ft 118 kts 195°
2026-04-27 15:59 32.27009 34.89818 2067 ft 120 kts 192°
2026-04-27 15:59 32.26196 34.89626 2065 ft 117 kts 193°
2026-04-27 15:59 32.25402 34.89436 2070 ft 117 kts 193°
2026-04-27 16:00 32.24624 34.89251 2073 ft 120 kts 194°
2026-04-27 16:00 32.23801 34.89058 2070 ft 117 kts 193°
2026-04-27 16:00 32.23007 34.88875 2069 ft 119 kts 194°
2026-04-27 16:00 32.22193 34.88692 2070 ft 119 kts 194°
2026-04-27 16:01 32.21379 34.88506 2072 ft 119 kts 194°
2026-04-27 16:01 32.20554 34.88381 2074 ft 120 kts 184°
2026-04-27 16:01 32.19720 34.88336 2072 ft 119 kts 185°
2026-04-27 16:01 32.18904 34.88286 2075 ft 116 kts 185°
2026-04-27 16:02 32.18084 34.88239 2078 ft 119 kts 184°
2026-04-27 16:02 32.17245 34.88186 2075 ft 119 kts 185°
2026-04-27 16:02 32.16425 34.88137 2077 ft 117 kts 185°
2026-04-27 16:02 32.15597 34.88094 1950 ft 128 kts 184°
2026-04-27 16:03 32.14710 34.87910 1866 ft 127 kts 200°
2026-04-27 16:03 32.13963 34.87529 1956 ft 112 kts 226°
2026-04-27 16:03 32.13666 34.86776 1992 ft 100 kts 276°
2026-04-27 16:03 32.14020 34.86208 2036 ft 92 kts 354°
2026-04-27 16:04 32.14629 34.86595 1926 ft 108 kts 38°
2026-04-27 16:04 32.15213 34.87142 1912 ft 106 kts 24°
2026-04-27 16:04 32.15899 34.87457 1855 ft 106 kts 15°
2026-04-27 16:04 32.16532 34.87690 1679 ft 83 kts
2026-04-27 16:05 32.17065 34.87644 1486 ft 72 kts 323°
2026-04-27 16:05 32.17309 34.87136 1255 ft 74 kts 292°
2026-04-27 16:05 32.17459 34.86585 1128 ft 64 kts 283°
2026-04-27 16:05 32.17469 34.86098 973 ft 63 kts 278°
2026-04-27 16:06 32.17514 34.85563 854 ft 64 kts 284°
2026-04-27 16:06 32.17582 34.85051 722 ft 65 kts 284°
2026-04-27 16:06 32.17715 34.84554 562 ft 64 kts 301°
2026-04-27 16:06 32.17833 34.84155 585 ft 50 kts 287°
2026-04-27 16:07 32.17926 34.83696 683 ft 66 kts 294°
2026-04-27 16:07 32.18106 34.83171 889 ft 69 kts 302°
2026-04-27 16:07 32.18482 34.82863 1086 ft 72 kts 348°
2026-04-27 16:07 32.18974 34.82991 1287 ft 79 kts 19°
2026-04-27 16:08 32.19359 34.83529 1149 ft 101 kts 76°
2026-04-27 16:08 32.19125 34.84254 979 ft 93 kts 122°
2026-04-27 16:08 32.18752 34.84831 851 ft 78 kts 126°
2026-04-27 16:08 32.18421 34.85236 837 ft 75 kts 140°
2026-04-27 16:09 32.17892 34.85292 842 ft 85 kts 209°
2026-04-27 16:09 32.17835 34.84091 333 ft 73 kts 299°
2026-04-27 16:09 32.17983 34.83605 115 ft 50 kts 295°
2026-04-27 16:10 32.18141 34.82896 283 ft 53 kts 295°
2026-04-27 16:10 32.18923 34.82938 553 ft 87 kts 31°
2026-04-27 16:11 32.19273 34.83491 712 ft 99 kts 83°
2026-04-27 16:11 32.18741 34.85060 946 ft 93 kts 144°
2026-04-27 16:12 32.17798 34.84947 796 ft 61 kts 261°
2026-04-27 16:12 32.17755 34.84358 500 ft 75 kts 295°
2026-04-27 16:12 32.18036 34.83426 109 ft 62 kts 293°
2026-04-27 16:13 32.18226 34.82859 240 ft 76 kts 292°
2026-04-27 16:13 32.19167 34.83050 626 ft 89 kts 33°
2026-04-27 16:13 32.19306 34.83761 781 ft 103 kts 102°
2026-04-27 16:14 32.18809 34.85326 1015 ft 112 kts 113°
2026-04-27 16:14 32.17616 34.84813 981 ft 115 kts 261°
2026-04-27 16:15 32.18004 34.83521 339 ft 58 kts 294°
2026-04-27 16:15 32.18585 34.82823 530 ft 83 kts
2026-04-27 16:16 32.19783 34.83274 818 ft 94 kts 18°
2026-04-27 16:16 32.20934 34.83936 1202 ft 86 kts 37°
2026-04-27 16:17 32.20493 34.85308 1304 ft 124 kts 129°
2026-04-27 16:17 32.19293 34.85554 895 ft 107 kts 214°
2026-04-27 16:18 32.18003 34.85160 635 ft 82 kts 211°
2026-04-27 16:18 32.17880 34.83985 276 ft 85 kts 290°
2026-04-27 16:19 32.18077 34.83313 119 ft 84 kts 293°
2026-04-27 16:19 32.18309 34.82735 407 ft 71 kts 327°
2026-04-27 16:20 32.19279 34.83927 931 ft 104 kts 102°
2026-04-27 16:20 32.18997 34.84747 987 ft 113 kts 121°
2026-04-27 16:20 32.17783 34.85052 925 ft 72 kts 253°
2026-04-27 16:21 32.17763 34.84484 495 ft 69 kts 289°
2026-04-27 16:21 32.18053 34.83188 260 ft 55 kts 287°
2026-04-27 16:22 32.18259 34.82736 394 ft 69 kts 327°
2026-04-27 16:22 32.19232 34.83265 669 ft 96 kts 62°
2026-04-27 16:22 32.19231 34.84075 868 ft 97 kts 87°
2026-04-27 16:23 32.19075 34.84865 897 ft 113 kts 120°
2026-04-27 16:23 32.17918 34.85110 695 ft 74 kts 247°
2026-04-27 16:23 32.17769 34.84587 476 ft 64 kts 274°
2026-04-27 16:24 32.17837 34.84088 254 ft 60 kts 298°
2026-04-27 16:24 32.18089 34.83209 200 ft 63 kts 293°
2026-04-27 16:25 32.18831 34.82813 490 ft 85 kts 23°
2026-04-27 16:25 32.19057 34.84082 858 ft 100 kts 111°
2026-04-27 16:26 32.18262 34.85310 899 ft 108 kts 185°
2026-04-27 16:26 32.17775 34.84336 340 ft 62 kts 292°
2026-04-27 16:27 32.18016 34.83512 115 ft 51 kts 292°
2026-04-27 16:27 32.18801 34.82851 441 ft 81 kts 15°
2026-04-27 16:28 32.19296 34.83963 867 ft 92 kts 84°
2026-04-27 16:28 32.18921 34.85449 1024 ft 107 kts 172°
2026-04-27 16:29 32.17747 34.84431 452 ft 62 kts 288°
2026-04-27 16:30 32.18020 34.83499 110 ft 52 kts 292°
2026-04-27 16:30 32.18462 34.82718 422 ft 67 kts 20°
2026-04-27 16:31 32.19325 34.84225 872 ft 100 kts 106°
2026-04-27 16:31 32.18587 34.85537 993 ft 110 kts 191°
2026-04-27 16:32 32.17789 34.84676 589 ft 62 kts 279°
2026-04-27 16:32 32.17813 34.84187 289 ft 62 kts 291°
2026-04-27 16:33 32.18053 34.83404 106 ft 22 kts 286°
2026-04-27 16:33 32.18041 34.83328 108 ft 0 kts 192°
2026-04-27 16:33 32.18041 34.83329 108 ft 0 kts 192°
2026-04-27 16:34 32.18041 34.83328 108 ft 0 kts 192°
2026-04-27 16:34 32.18022 34.83327 106 ft 5 kts 146°
2026-04-27 16:35 32.18019 34.83335 107 ft 0 kts 47°